21:12
Airports
History
Links
Donate
Help keep this website running!
PayPal
Bitcoin
This page is community maintained. The information is intended for PC simulator navigation or reference.
Always use approved charts for navigation.
SC80
Anderson
Anderson (SC80)
Pendleton, South Carolina, United States (29670)
4
Lat/Lng:34° 40' 4" N / 82° 42' 36" W
34.667778 / -82.71
Elevation:817'ft / 249mMSL
ID / ICAO:SC80
Runways:1
Longest:(08-26) 450.6m / 1,478ft Grass
Distance To
Airport ID:
Nearby VORs <50NM
Nearby NDBs
Nearby WeatherUpdated 08-20-17 20:56 GMT
Nearby weather at KAND, Anderson Rgnl located 12.0 nautical miles from SC80
Altimeter: 30.07
Visibility: 10.0 statute miles
Wind: 6 knots (130°)
Temp: 34°c 93°f
Humidity: 34.2%

METAR: KAND 202056Z AUTO 13006KT 10SM CLR 34/16 A3007 RMK AO2 SLP170 T03390161 56015

(Powered by phpweather)
Runway 08 / 26
Dimensions:450.6 x 18.3m 1478' x 60'ft
Surface:Grass
Runway 08 [A]Runway 26 [B]
Heading:076°TH 256°TH
Lat:
Lng:
34° 40' 2.21"N
82° 42' 44.74"W
34° 40' 5.79"N
82° 42' 27.26"W
User Notes and Comments
Google Map
Nearby Airports
(U) Pickens County 9.8 NM
KLQK N
(U) Oconee County Rgnl 10.0 NM
KCEU W 271°
(R) Eagle Ridge 11.6 NM
SC24 W 271°
(R) Oakview 11.7 NM
SC52 NNW 328°
4 Sky Valley Airpark 11.8 NM
SC32 E 95°
(U) Anderson Rgnl 12.0 NM
KAND (WX) S 179°
(R) Tokeena Air Park 14.8 NM
SC96 WSW 239°
VFR Chart
Flight Planning at SkyVector.com